Regional Weather Roundup
Issued by NWS Charleston, SC

Current Version | Previous Version | Text Only | Print | Product List | Glossary Off
Versions: 1 2 3 4 5 6 7 8 9 10 11 12 13 14 15 16 17 18 19 20 21 22 23 24 25 26 27 28 29 30 31 32 33 34 35 36 37 38 39 40 41 42 43 44 45 46 47 48 49 50
000 ASUS42 KCHS 171427 RWRCHS Regional Weather Roundup National Weather Service Charleston SC 900 AM EST SUN DEC 17 2017 NOTE: "fair" indicates few or no clouds below 12,000 feet with no significant weather and/or obstructions to visibility. Not all stations are quality controlled. Use data with caution, especially dewpoint observations. SCZ027-030-031-034>040-042>050-171500- ...Southeast South Carolina... CITY SKY/WX TMP DP RH WIND PRES REMARKS N Charleston PTSUNNY 41 40 96 CALM 30.32R FOG Waterfront Prk N/A 45 43 93 CALM 30.18R Mount Pleasant FAIR 41 39 93 CALM 30.33S FOG Johns Island FAIR 48 45 87 CALM 30.33S Pinopolis N/A 43 43 100 CALM 30.24R Moncks Corner FAIR 37 37 100 CALM 30.33R FOG Summerville FAIR 36 34 93 CALM 30.34S FOG Beaufort MCAS CLOUDY 44 43 96 CALM 30.32R FOG Beaufort Arpt FAIR 45 45 100 CALM 30.32S FOG Hilton Head Is SUNNY 43 41 93 N6 30.32R Walterboro CLOUDY 39 37 93 CALM 30.33S Allendale FAIR 39 36 87 CALM 30.32R ...Southern Midlands and Pee Dee... CITY SKY/WX TMP DP RH WIND PRES REMARKS Georgetown FAIR 41 41 100 CALM 30.34R Kingstree FAIR 36 34 93 CALM 30.33R Orangeburg CLOUDY 35 32 88 CALM 30.33R Barnwell N/A 37 34 87 CALM 30.32R Aiken FAIR 43 32 65 S3 30.33R Manning FAIR 36 32 87 MISG 30.34R Columbia CLOUDY 35 32 88 CALM 30.31R Sumter MOSUNNY 35 32 87 CALM 30.29R Florence CLOUDY 36 33 89 SW3 30.32R Myrtle Beach CLOUDY 40 38 93 CALM 30.33S N Myrtle Beach CLOUDY 40 38 93 CALM 30.31S $$ GAZ063-065-086>088-099>101-113>116-118-119-134>141-150-171500- ...Southeast Georgia... CITY SKY/WX TMP DP RH WIND PRES REMARKS Savannah Arpt PTSUNNY 43 41 93 CALM 30.33R FOG Hunter AAF CLOUDY 44 41 91 CALM 30.30R Fort Stewart MOSUNNY 41 38 89 CALM N/A Statesboro CLOUDY 44 38 78 CALM 30.32R Sylvania MOSUNNY 42 40 93 CALM 30.32R FOG Claxton FAIR 43 40 90 CALM 30.32S ...CSRA, Central and far Southeast Georgia... CITY SKY/WX TMP DP RH WIND PRES REMARKS Thomson CLOUDY 40 33 76 CALM 30.34R HAZE Augusta-Bush CLOUDY 31 31 100 CALM 30.32R FOG Augusta-Daniel CLOUDY 39 32 76 SE6 30.30R WCI 35 Swainsboro FAIR 43 39 87 CALM 30.31R Vidalia MOSUNNY 48 45 87 CALM 30.30S Eastman FAIR 46 33 60 SE5 30.30F Hazlehurst FAIR 50 37 59 S5 30.27F Alma MOSUNNY 47 42 83 SE3 30.29S Waycross CLOUDY 49 43 80 CALM 30.30F Jesup NOT AVBL Baxley FAIR 46 43 87 SE3 30.29F Brunswick CLOUDY 50 46 87 CALM 30.33R Saint Simons CLOUDY 54 50 86 CALM 30.31R $$ SCZ027-028-034-036>038-045-046-048>050-GAZ119-141-171500- ...Lake and Supplemental Coastal Observations... STATION/POSITION TIME TEMP WIND PRES WAVE SWELL AIR SEA DIR/SP/G HT/PER HT/PER/DIR (UTC) (F) (DEG/KT/KT) (MB) (FT/S) (FT/S/D) Winyah Bay 1330 38 CALM 1027.0S Lake Murray 1350 41 CALM 1025.4R ACE Basin NERRS 1345 41 CALM 1027.0R Fort Pulaski 1400 51 53 40/ 2/ 2 1026.9 Sapelo Island 1400 51 30/ 3 1027.0 $$ ANZ835-935-AMZ111-154-330-350-352-354-370-450-454-472-171500- ...C-MAN and Buoy Observations... STATION/POSITION TIME TEMP WIND PRES WAVE SWELL AIR SEA DIR/SP/G HT/PER HT/PER/DIR (UTC) (F) (DEG/KT/KT) (MB) (FT/S) (FT/S/D) Buoy 41004 1400 58 72 30/ 4/ 6 1026.3 Buoy 41008 1350 58 58 70/ 6/ 8 1026.1R 1/11 2/120/11 Folly Beach CMAN 1400 48 360/ 3/ 4 1027.2R Capers Nearshore 1408 51 55 10/ 2/ 4 1026.8R STATION/POSITION TIME TEMP WIND PRES WAVE SWELL AIR SEA DIR/SP/G HT/PER HT/PER/DIR (UTC) (F) (DEG/KT/KT) (MB) (FT/S) (FT/S/D) 5E St. Marys GA 1330 61 N/A 2/11 Frying Pan Buoy 1400 55 69 40/ 6/ 8 1026.7 Buoy 41025 1410 52 71 300/ 4/ 8 1027.5 Cape Lookout NC 1400 350/ 3/ 3 1027.3F Buoy 41002 1350 65 74 CALM / 2 1026.6R 3/ 9 3/ 80/ 9 Buoy 41010 NOT AVBL St Augustine FL 1400 64 63 360/ 7/ 8 1026.2R $$

USA.gov is the U.S. government's official web portal to all federal, state and local government web resources and services.